STARLINK-2722, 48472

Orbit data source: Space-Track

STARLINK-2722, 48472 is a payload satellite owned by SpaceX/Seattle (US) in LEO that was launched on Sun, 09 May 2021 UTC via an FALCON 9 launch vehicle from the Air Force Eastern Test Range (AFETR). Payload-class satellites include a variety of spacecraft equipped with specific instruments for various scientific and technological missions. These include communications satellites like Starlink; space stations such as the ISS; scientific satellites like the Hubble; Earth observation satellites from companies like Planet Labs, Umbra, and HawkEye 360; GPS; miniature CubeSats for education and research; and military/defense satellites.

Loading next visibility...
Identifier
48472, 2021-040AW
Orbit
LEO
Country
Flag of USUS
Related business
Manufacturer
SpaceX/Seattle
Mission
Operational Commercial Communications
Bus & Motor
STARLINK, Unknown motor
Mass
260 kg wet, ~248 kg dry
Launch date (UTC)
2021-05-09 (5 years ago)
Launch vehicle
FALCON 9
Launch site
Air Force Eastern Test Range (AFETR)
Object type
Payload
Rocket body
Debris
Shape & HBR
Box + 1 Pan, 10.1 m
Radar Cross Section
13.562 m², Large (>1 m²)

Expand to show TLE details & history
Last TLE update: 2 days ago

TLE from 2 days ago
0 STARLINK-2722
1 48472U 21040AW  26171.17948932  .00017992  00000-0  10353-2 0  9994
2 48472  53.0599  88.6314 0002814  67.3318 292.7971 15.12522982281972
Epoch: 2026-06-20T04:18Z
TLE epoch observation values (Epoch: 2026-06-20T04:18:27.877Z)
Latitude
-0.00002°
Longitude
115.61741°
Altitude
528.638 km
Speed
7.6 km/s
True Right ascension
05h 54m 31s
True Declination
0° 00' 00"
Sunlit
Object was in daylight at epoch
Visualization orbit readout
Latitude
Unknown
Longitude
Unknown
Altitude
Unknown
Speed
Unknown
Apparent Right ascension
Unknown
Apparent Declination
Unknown
Sunlit
N/A
Visualization observer readout
Local Sidereal Time
21:27:23
Azimuth
Unknown
Elevation
Unknown
Doppler factor
Unknown
Orbital elements
Apogee altitude
530.723 km
Perigee altitude
526.836 km
Semi-major axis
6,906.916 km
Eccentricity
0.00028
Inclination
53.0599°
RAAN
88.6314°
Arg. of periapsis
67.3318°
True anomaly
292.76737°
Mean anomaly
292.7971°
Eccentric anomaly
292.78223°
Mean motion
3.78109 °/min
Orbital period
95.21 mins
BSTAR
0.0010353
Loading maneuver chart data...
Computing Atmospheric mass density...

Documentation

Showing up to 5 results
|